Preview of NWS' New Version of Forecast
This preview is not operational and should not be used for support decisions.

Terminal Aerodrome Forecast (TAF)

Issued by National Weather Service (NWS)

                            
000
FTUS42 KKEY 141740
TAFMTH
TAF
KMTH 141740Z 1418/1518 13007KT P6SM SCT022
     FM151500 08011G16KT P6SM SCT025=